Year,Month,Day,Hour,Minute,Value (Times are PST for temperature in C)
2016,03,31,10,01,13.40
2016,03,31,10,02,13.40
2016,03,31,10,03,13.50
2016,03,31,10,04,13.60
2016,03,31,10,05,13.60
2016,03,31,10,06,13.70
2016,03,31,10,07,13.80
2016,03,31,10,08,13.90
2016,03,31,10,09,14.00
2016,03,31,10,10,14.10
2016,03,31,10,11,14.20
2016,03,31,10,12,14.30
2016,03,31,10,13,14.40
2016,03,31,10,14,14.50
2016,03,31,10,15,14.70
2016,03,31,10,16,14.80
2016,03,31,10,17,14.80
2016,03,31,10,18,14.80
2016,03,31,10,19,14.90
2016,03,31,10,20,14.90
2016,03,31,10,21,15.00
2016,03,31,10,22,15.20
2016,03,31,10,23,15.40
2016,03,31,10,24,15.50
2016,03,31,10,25,15.60
2016,03,31,10,26,15.70
2016,03,31,10,27,15.80
2016,03,31,10,28,15.80
2016,03,31,10,29,15.80
2016,03,31,10,30,15.90
2016,03,31,10,31,16.00
2016,03,31,10,32,16.10
2016,03,31,10,33,16.20
2016,03,31,10,34,16.20
2016,03,31,10,35,16.30
2016,03,31,10,36,16.40
2016,03,31,10,37,16.40
2016,03,31,10,38,16.40
2016,03,31,10,39,16.50
2016,03,31,10,40,16.50
2016,03,31,10,41,16.50
2016,03,31,10,42,16.40
2016,03,31,10,43,16.30
2016,03,31,10,44,16.30
2016,03,31,10,45,16.30
2016,03,31,10,46,16.30
2016,03,31,10,47,16.40
2016,03,31,10,48,16.50
2016,03,31,10,49,16.60
2016,03,31,10,50,16.70
2016,03,31,10,51,16.80
2016,03,31,10,52,16.90
2016,03,31,10,53,16.90
2016,03,31,10,54,17.00
2016,03,31,10,55,17.00
2016,03,31,10,56,17.00
2016,03,31,10,57,17.10
2016,03,31,10,58,17.10
2016,03,31,10,59,17.20
2016,03,31,11,00,17.30
2016,03,31,11,01,17.30
2016,03,31,11,02,17.30
2016,03,31,11,03,17.40
2016,03,31,11,04,17.40
2016,03,31,11,05,17.40
2016,03,31,11,06,17.40
2016,03,31,11,07,17.30
2016,03,31,11,08,17.30
2016,03,31,11,09,17.30
2016,03,31,11,10,17.30
2016,03,31,11,11,17.40
2016,03,31,11,12,17.50
2016,03,31,11,13,17.60
2016,03,31,11,14,17.60
2016,03,31,11,15,17.50
2016,03,31,11,16,17.40
2016,03,31,11,17,17.40
2016,03,31,11,18,17.30
2016,03,31,11,19,17.30
2016,03,31,11,20,17.30
2016,03,31,11,21,17.30
2016,03,31,11,22,17.20
2016,03,31,11,23,17.10
2016,03,31,11,24,17.10
2016,03,31,11,25,17.10
2016,03,31,11,26,17.10
2016,03,31,11,27,17.10
2016,03,31,11,28,17.10
2016,03,31,11,29,17.10
2016,03,31,11,30,17.10
2016,03,31,11,31,17.10
2016,03,31,11,32,17.20
2016,03,31,11,33,17.20
2016,03,31,11,34,17.30
2016,03,31,11,35,17.30
2016,03,31,11,36,17.30
2016,03,31,11,37,17.20
2016,03,31,11,38,17.20
2016,03,31,11,39,17.20
2016,03,31,11,40,17.20
2016,03,31,11,41,17.30
2016,03,31,11,42,17.30
2016,03,31,11,43,17.30
2016,03,31,11,44,17.30
2016,03,31,11,45,17.30
2016,03,31,11,46,17.30
2016,03,31,11,47,17.30
2016,03,31,11,48,17.20
2016,03,31,11,49,17.20
2016,03,31,11,50,17.10
2016,03,31,11,51,17.10
2016,03,31,11,52,17.10
2016,03,31,11,53,17.10
2016,03,31,11,54,17.20
2016,03,31,11,55,17.30
2016,03,31,11,56,17.30
2016,03,31,11,57,17.40
2016,03,31,11,58,17.30
2016,03,31,11,59,17.30
2016,03,31,12,00,17.40
2016,03,31,12,01,17.40
2016,03,31,12,02,17.30
2016,03,31,12,03,17.30
2016,03,31,12,04,17.30
2016,03,31,12,05,17.30
2016,03,31,12,06,17.20
2016,03,31,12,07,17.20
2016,03,31,12,08,17.20
2016,03,31,12,09,17.30
2016,03,31,12,10,17.30
2016,03,31,12,11,17.30
2016,03,31,12,12,17.20
2016,03,31,12,13,17.20
2016,03,31,12,14,17.10
2016,03,31,12,15,17.10
2016,03,31,12,16,17.10
2016,03,31,12,17,17.20
2016,03,31,12,18,17.30
2016,03,31,12,19,17.30
2016,03,31,12,20,17.20
2016,03,31,12,21,17.20
2016,03,31,12,22,17.30
2016,03,31,12,23,17.40
2016,03,31,12,24,17.40
2016,03,31,12,25,17.50
2016,03,31,12,26,17.50
2016,03,31,12,27,17.50
2016,03,31,12,28,17.50
2016,03,31,12,29,17.60
2016,03,31,12,30,17.60
2016,03,31,12,31,17.60
2016,03,31,12,32,17.70
2016,03,31,12,33,17.70
2016,03,31,12,34,17.70
2016,03,31,12,35,17.70
2016,03,31,12,36,17.80
2016,03,31,12,37,17.80
2016,03,31,12,38,17.80
2016,03,31,12,39,17.70
2016,03,31,12,40,17.70
2016,03,31,12,41,17.70
2016,03,31,12,42,17.70
2016,03,31,12,43,17.70
2016,03,31,12,44,17.70
2016,03,31,12,45,17.70
2016,03,31,12,46,17.70
2016,03,31,12,47,17.80
2016,03,31,12,48,17.80
2016,03,31,12,49,17.80
2016,03,31,12,50,17.80
2016,03,31,12,51,17.80
2016,03,31,12,52,17.80
2016,03,31,12,53,17.80
2016,03,31,12,54,17.90
2016,03,31,12,55,17.90
2016,03,31,12,56,18.00
2016,03,31,12,57,18.10
2016,03,31,12,58,18.20
2016,03,31,12,59,18.20
2016,03,31,13,00,18.30
2016,03,31,13,01,18.40
2016,03,31,13,02,18.40
2016,03,31,13,03,18.40
2016,03,31,13,04,18.40
2016,03,31,13,05,18.40
2016,03,31,13,06,18.50
2016,03,31,13,07,18.50
2016,03,31,13,08,18.70
2016,03,31,13,09,18.70
2016,03,31,13,10,18.80
2016,03,31,13,11,18.80
2016,03,31,13,12,18.90
2016,03,31,13,13,19.00
2016,03,31,13,14,19.10
2016,03,31,13,15,19.20
2016,03,31,13,16,19.30
2016,03,31,13,17,19.50
2016,03,31,13,18,19.60
2016,03,31,13,19,19.60
2016,03,31,13,20,19.60
2016,03,31,13,21,19.70
2016,03,31,13,22,19.80
2016,03,31,13,23,19.80
2016,03,31,13,24,19.80
2016,03,31,13,25,19.70
2016,03,31,13,26,19.60
2016,03,31,13,27,19.50
2016,03,31,13,28,19.50
2016,03,31,13,29,19.50
2016,03,31,13,30,19.40
2016,03,31,13,31,19.40
2016,03,31,13,32,19.50
2016,03,31,13,33,19.60
2016,03,31,13,34,19.60
2016,03,31,13,35,19.60
2016,03,31,13,36,19.50
2016,03,31,13,37,19.60
2016,03,31,13,38,19.60
2016,03,31,13,39,19.70
2016,03,31,13,40,19.70
2016,03,31,13,41,19.70
2016,03,31,13,42,19.70
2016,03,31,13,43,19.80
2016,03,31,13,44,19.80
2016,03,31,13,45,19.90
2016,03,31,13,46,20.00
2016,03,31,13,47,20.10
2016,03,31,13,48,20.20
2016,03,31,13,49,20.30
2016,03,31,13,50,20.30
2016,03,31,13,51,20.40
2016,03,31,13,52,20.50
2016,03,31,13,53,20.40
2016,03,31,13,54,20.40
2016,03,31,13,55,20.20
2016,03,31,13,56,19.90
2016,03,31,13,57,19.70
2016,03,31,13,58,19.60
2016,03,31,13,59,19.60
2016,03,31,14,00,19.60
2016,03,31,14,01,19.60
2016,03,31,14,02,19.50
2016,03,31,14,03,19.50
2016,03,31,14,04,19.40
2016,03,31,14,05,19.20
2016,03,31,14,06,19.10
2016,03,31,14,07,19.00
2016,03,31,14,08,18.90
2016,03,31,14,09,18.90
2016,03,31,14,10,18.80
2016,03,31,14,11,18.80
2016,03,31,14,12,18.70
2016,03,31,14,13,18.70
2016,03,31,14,14,18.60
2016,03,31,14,15,18.70
2016,03,31,14,16,18.70
2016,03,31,14,17,18.70
2016,03,31,14,18,18.80
2016,03,31,14,19,18.80
2016,03,31,14,20,18.90
2016,03,31,14,21,18.90
2016,03,31,14,22,18.90
2016,03,31,14,23,18.90
2016,03,31,14,24,19.00
2016,03,31,14,25,19.10
2016,03,31,14,26,19.20
2016,03,31,14,27,19.30
2016,03,31,14,28,19.30
2016,03,31,14,29,19.30
2016,03,31,14,30,19.20
2016,03,31,14,31,19.20
2016,03,31,14,32,19.20
2016,03,31,14,33,19.20
2016,03,31,14,34,19.30
2016,03,31,14,35,19.30
2016,03,31,14,36,19.40
2016,03,31,14,37,19.40
2016,03,31,14,38,19.40
2016,03,31,14,39,19.40
2016,03,31,14,40,19.50
2016,03,31,14,41,19.50
2016,03,31,14,42,19.60
2016,03,31,14,43,19.60
2016,03,31,14,44,19.60
2016,03,31,14,45,19.60
2016,03,31,14,46,19.60
2016,03,31,14,47,19.60
2016,03,31,14,48,19.60
2016,03,31,14,49,19.60
2016,03,31,14,50,19.70
2016,03,31,14,51,19.70
2016,03,31,14,52,19.80
2016,03,31,14,53,19.90
2016,03,31,14,54,20.00
2016,03,31,14,55,20.10
2016,03,31,14,56,20.10
2016,03,31,14,57,20.00
2016,03,31,14,58,19.90
2016,03,31,14,59,19.80
2016,03,31,15,00,19.80
2016,03,31,15,01,19.90
2016,03,31,15,02,20.00
2016,03,31,15,03,20.00
2016,03,31,15,04,19.90
2016,03,31,15,05,20.00
2016,03,31,15,06,20.00
2016,03,31,15,07,20.10
2016,03,31,15,08,20.10
2016,03,31,15,09,20.00
2016,03,31,15,10,19.90
2016,03,31,15,11,19.90
2016,03,31,15,12,20.00
2016,03,31,15,13,20.10
2016,03,31,15,14,20.10
2016,03,31,15,15,20.20
2016,03,31,15,16,20.20
2016,03,31,15,17,20.20
2016,03,31,15,18,20.30
2016,03,31,15,19,20.30
2016,03,31,15,20,20.30
2016,03,31,15,21,20.30
2016,03,31,15,22,20.30
2016,03,31,15,23,20.20
2016,03,31,15,24,20.20
2016,03,31,15,25,20.10
2016,03,31,15,26,20.10
2016,03,31,15,27,20.10
2016,03,31,15,28,20.10
2016,03,31,15,29,20.10
2016,03,31,15,30,20.20
2016,03,31,15,31,20.20
2016,03,31,15,32,20.30
2016,03,31,15,33,20.30
2016,03,31,15,34,20.40
2016,03,31,15,35,20.50
2016,03,31,15,36,20.50
2016,03,31,15,37,20.60
2016,03,31,15,38,20.60
2016,03,31,15,39,20.70
2016,03,31,15,40,20.80
2016,03,31,15,41,20.80
2016,03,31,15,42,20.70
2016,03,31,15,43,20.70
2016,03,31,15,44,20.60
2016,03,31,15,45,20.60
2016,03,31,15,46,20.40
2016,03,31,15,47,20.40
2016,03,31,15,48,20.40
2016,03,31,15,49,20.50
2016,03,31,15,50,20.50
2016,03,31,15,51,20.50
2016,03,31,15,52,20.50
2016,03,31,15,53,20.50
2016,03,31,15,54,20.40
2016,03,31,15,55,20.40
2016,03,31,15,56,20.30
2016,03,31,15,57,20.30
2016,03,31,15,58,20.30
2016,03,31,15,59,20.30
2016,03,31,16,00,20.30
2016,03,31,16,01,20.30
2016,03,31,16,02,20.30
2016,03,31,16,03,20.40
2016,03,31,16,04,20.50
2016,03,31,16,05,20.60
2016,03,31,16,06,20.70
2016,03,31,16,07,20.70
2016,03,31,16,08,20.70
2016,03,31,16,09,20.80
2016,03,31,16,10,20.80
2016,03,31,16,11,20.80
2016,03,31,16,12,20.80
2016,03,31,16,13,20.80
2016,03,31,16,14,20.70
2016,03,31,16,15,20.60
2016,03,31,16,16,20.60
2016,03,31,16,17,20.60
2016,03,31,16,18,20.60
2016,03,31,16,19,20.50
2016,03,31,16,20,20.50
2016,03,31,16,21,20.50
2016,03,31,16,22,20.50
2016,03,31,16,23,20.60
2016,03,31,16,24,20.60
2016,03,31,16,25,20.60
2016,03,31,16,26,20.60
2016,03,31,16,27,20.60
2016,03,31,16,28,20.60
2016,03,31,16,29,20.70
2016,03,31,16,30,20.80
2016,03,31,16,31,20.80
2016,03,31,16,32,20.80
2016,03,31,16,33,20.80
2016,03,31,16,34,20.70
2016,03,31,16,35,20.70
2016,03,31,16,36,20.70
2016,03,31,16,37,20.70
2016,03,31,16,38,20.70
2016,03,31,16,39,20.70
2016,03,31,16,40,20.70
2016,03,31,16,41,20.70
2016,03,31,16,42,20.80
2016,03,31,16,43,20.80
2016,03,31,16,44,20.80
2016,03,31,16,45,20.90
2016,03,31,16,46,20.90
2016,03,31,16,47,21.00
2016,03,31,16,48,21.00
2016,03,31,16,49,20.90
2016,03,31,16,50,20.90
2016,03,31,16,51,20.80
2016,03,31,16,52,20.80
2016,03,31,16,53,20.90
2016,03,31,16,54,20.90
2016,03,31,16,55,21.00
2016,03,31,16,56,21.00
2016,03,31,16,57,21.10
2016,03,31,16,58,21.10
2016,03,31,16,59,21.20
2016,03,31,17,00,21.30
2016,03,31,17,01,21.30
2016,03,31,17,02,21.40
2016,03,31,17,03,21.40
2016,03,31,17,04,21.50
2016,03,31,17,05,21.50
2016,03,31,17,06,21.60
2016,03,31,17,07,21.60
2016,03,31,17,08,21.60
2016,03,31,17,09,21.60
2016,03,31,17,10,21.60
2016,03,31,17,11,21.70
2016,03,31,17,12,21.70
2016,03,31,17,13,21.80
2016,03,31,17,14,21.80
2016,03,31,17,15,21.80
2016,03,31,17,16,21.90
2016,03,31,17,17,21.90
2016,03,31,17,18,22.00
2016,03,31,17,19,22.00
2016,03,31,17,20,21.90
2016,03,31,17,21,21.90
2016,03,31,17,22,21.80
2016,03,31,17,23,21.70
2016,03,31,17,24,21.70
2016,03,31,17,25,21.70
2016,03,31,17,26,21.80
2016,03,31,17,27,21.80
2016,03,31,17,28,21.80
2016,03,31,17,29,21.80
2016,03,31,17,30,21.70
2016,03,31,17,31,21.60
2016,03,31,17,32,21.60
2016,03,31,17,33,21.70
2016,03,31,17,34,21.70
2016,03,31,17,35,21.60
2016,03,31,17,36,21.50
2016,03,31,17,37,21.50
2016,03,31,17,38,21.40
2016,03,31,17,39,21.30
2016,03,31,17,40,21.30
2016,03,31,17,41,21.20
2016,03,31,17,42,21.20
2016,03,31,17,43,21.20
2016,03,31,17,44,21.20
2016,03,31,17,45,21.20
2016,03,31,17,46,21.20
2016,03,31,17,47,21.20
2016,03,31,17,48,21.20
2016,03,31,17,49,21.20
2016,03,31,17,50,21.20
2016,03,31,17,51,21.20
2016,03,31,17,52,21.20
2016,03,31,17,53,21.20
2016,03,31,17,54,21.30
2016,03,31,17,55,21.40
2016,03,31,17,56,21.40
2016,03,31,17,57,21.50
2016,03,31,17,58,21.50
2016,03,31,17,59,21.60
2016,03,31,18,00,21.60
2016,03,31,18,01,21.60
2016,03,31,18,02,21.60
2016,03,31,18,03,21.60
2016,03,31,18,04,21.70
2016,03,31,18,05,21.70
2016,03,31,18,06,21.70
2016,03,31,18,07,21.70
2016,03,31,18,08,21.80
2016,03,31,18,09,21.80
2016,03,31,18,10,21.80
2016,03,31,18,11,21.80
2016,03,31,18,12,21.70
2016,03,31,18,13,21.70
2016,03,31,18,14,21.60
2016,03,31,18,15,21.60
2016,03,31,18,16,21.60
2016,03,31,18,17,21.60
2016,03,31,18,18,21.60
2016,03,31,18,19,21.60
2016,03,31,18,20,21.60
2016,03,31,18,21,21.60
2016,03,31,18,22,21.70
2016,03,31,18,23,21.70
2016,03,31,18,24,21.80
2016,03,31,18,25,21.80
2016,03,31,18,26,21.70
2016,03,31,18,27,21.70
2016,03,31,18,28,21.70
2016,03,31,18,29,21.70
2016,03,31,18,30,21.60
2016,03,31,18,31,21.60
2016,03,31,18,32,21.60
2016,03,31,18,33,21.60
2016,03,31,18,34,21.60
2016,03,31,18,35,21.60
2016,03,31,18,36,21.60
2016,03,31,18,37,21.60
2016,03,31,18,38,21.60
2016,03,31,18,39,21.50
2016,03,31,18,40,21.50
2016,03,31,18,41,21.60
2016,03,31,18,42,21.50
2016,03,31,18,43,21.40
2016,03,31,18,44,21.30
2016,03,31,18,45,21.20
2016,03,31,18,46,21.10
2016,03,31,18,47,21.10
2016,03,31,18,48,21.10
2016,03,31,18,49,21.10
2016,03,31,18,50,21.10
2016,03,31,18,51,21.00
2016,03,31,18,52,21.00
2016,03,31,18,53,20.90
2016,03,31,18,54,20.80
2016,03,31,18,55,20.60
2016,03,31,18,56,20.50
2016,03,31,18,57,20.40
2016,03,31,18,58,20.40
2016,03,31,18,59,20.30
2016,03,31,19,00,20.30
2016,03,31,19,01,20.30
2016,03,31,19,02,20.30
2016,03,31,19,03,20.30
2016,03,31,19,04,20.20
2016,03,31,19,05,20.20
2016,03,31,19,06,20.10
2016,03,31,19,07,20.10
2016,03,31,19,08,20.00
2016,03,31,19,09,20.00
2016,03,31,19,10,19.90
2016,03,31,19,11,19.90
2016,03,31,19,12,19.80
2016,03,31,19,13,19.80
2016,03,31,19,14,19.70
2016,03,31,19,15,19.60
2016,03,31,19,16,19.60
2016,03,31,19,17,19.40
2016,03,31,19,18,19.30
2016,03,31,19,19,19.10
2016,03,31,19,20,19.00
2016,03,31,19,21,18.90
2016,03,31,19,22,18.80
2016,03,31,19,23,18.70
2016,03,31,19,24,18.50
2016,03,31,19,25,18.40
2016,03,31,19,26,18.30
2016,03,31,19,27,18.20
2016,03,31,19,28,18.10
2016,03,31,19,29,18.10
2016,03,31,19,30,18.00
2016,03,31,19,31,17.90
2016,03,31,19,32,17.90
2016,03,31,19,33,17.80
2016,03,31,19,34,17.70
2016,03,31,19,35,17.60
2016,03,31,19,36,17.40
2016,03,31,19,37,17.30
2016,03,31,19,38,17.20
2016,03,31,19,39,17.10
2016,03,31,19,40,17.00
2016,03,31,19,41,16.80
2016,03,31,19,42,16.80
2016,03,31,19,43,16.70
2016,03,31,19,44,16.70
2016,03,31,19,45,16.60
2016,03,31,19,46,16.60
2016,03,31,19,47,16.60
2016,03,31,19,48,16.50
2016,03,31,19,49,16.40
2016,03,31,19,50,16.40
2016,03,31,19,51,16.40
2016,03,31,19,52,16.30
2016,03,31,19,53,16.20
2016,03,31,19,54,16.20
2016,03,31,19,55,16.10
2016,03,31,19,56,16.00
2016,03,31,19,57,16.00
2016,03,31,19,58,16.00
2016,03,31,19,59,15.90
2016,03,31,20,00,15.90
2016,03,31,20,01,15.80
2016,03,31,20,02,15.80
2016,03,31,20,03,15.80
2016,03,31,20,04,15.80
2016,03,31,20,05,15.80
2016,03,31,20,06,15.80
2016,03,31,20,07,15.80
2016,03,31,20,08,15.80
2016,03,31,20,09,15.80
2016,03,31,20,10,15.80
2016,03,31,20,11,15.80
2016,03,31,20,12,15.80
2016,03,31,20,13,15.80
2016,03,31,20,14,15.80
2016,03,31,20,15,15.80
2016,03,31,20,16,15.80
2016,03,31,20,17,15.80
2016,03,31,20,18,15.70
2016,03,31,20,19,15.70
2016,03,31,20,20,15.70
2016,03,31,20,21,15.70
2016,03,31,20,22,15.70
2016,03,31,20,23,15.70
2016,03,31,20,24,15.60
2016,03,31,20,25,15.50
2016,03,31,20,26,15.30
2016,03,31,20,27,15.20
2016,03,31,20,28,15.10
2016,03,31,20,29,15.00
2016,03,31,20,30,14.90
2016,03,31,20,31,14.80
2016,03,31,20,32,14.70
2016,03,31,20,33,14.70
2016,03,31,20,34,14.60
2016,03,31,20,35,14.50
2016,03,31,20,36,14.50
2016,03,31,20,37,14.40
2016,03,31,20,38,14.30
2016,03,31,20,39,14.30
2016,03,31,20,40,14.30
2016,03,31,20,41,14.20
2016,03,31,20,42,14.20
2016,03,31,20,43,14.20
2016,03,31,20,44,14.20
2016,03,31,20,45,14.20
2016,03,31,20,46,14.20
2016,03,31,20,47,14.20
2016,03,31,20,48,14.20
2016,03,31,20,49,14.10
2016,03,31,20,50,14.10
2016,03,31,20,51,14.10
2016,03,31,20,52,14.10
2016,03,31,20,53,14.10
2016,03,31,20,54,14.10
2016,03,31,20,55,14.10
2016,03,31,20,56,14.10
2016,03,31,20,57,14.10
2016,03,31,20,58,14.10
2016,03,31,20,59,14.10
2016,03,31,21,00,14.00
2016,03,31,21,01,14.00
2016,03,31,21,02,14.00
2016,03,31,21,03,13.90
2016,03,31,21,04,13.90
2016,03,31,21,05,13.80
2016,03,31,21,06,13.80
2016,03,31,21,07,13.80
2016,03,31,21,08,13.80
2016,03,31,21,09,13.70
2016,03,31,21,10,13.70
2016,03,31,21,11,13.60
2016,03,31,21,12,13.50
2016,03,31,21,13,13.40
2016,03,31,21,14,13.40
2016,03,31,21,15,13.40
2016,03,31,21,16,13.30
2016,03,31,21,17,13.30
2016,03,31,21,18,13.20
2016,03,31,21,19,13.20
2016,03,31,21,20,13.20
2016,03,31,21,21,13.10
2016,03,31,21,22,13.10
2016,03,31,21,23,13.10
2016,03,31,21,24,13.00
2016,03,31,21,25,13.00
2016,03,31,21,26,12.90
2016,03,31,21,27,12.90
2016,03,31,21,28,12.90
2016,03,31,21,29,12.80
2016,03,31,21,30,12.80
2016,03,31,21,31,12.80
2016,03,31,21,32,12.80
2016,03,31,21,33,12.80
2016,03,31,21,34,12.70
2016,03,31,21,35,12.70
2016,03,31,21,36,12.70
2016,03,31,21,37,12.70
2016,03,31,21,38,12.70
2016,03,31,21,39,12.70
2016,03,31,21,40,12.60
2016,03,31,21,41,12.60
2016,03,31,21,42,12.60
2016,03,31,21,43,12.50
2016,03,31,21,44,12.50
2016,03,31,21,45,12.50
2016,03,31,21,46,12.40
2016,03,31,21,47,12.40
2016,03,31,21,48,12.40
2016,03,31,21,49,12.40
2016,03,31,21,50,12.30
2016,03,31,21,51,12.30
2016,03,31,21,52,12.30
2016,03,31,21,53,12.30
2016,03,31,21,54,12.30
2016,03,31,21,55,12.20
2016,03,31,21,56,12.20
2016,03,31,21,57,12.20
2016,03,31,21,58,12.10
2016,03,31,21,59,12.10
2016,03,31,22,00,12.10
2016,03,31,22,01,12.10
2016,03,31,22,02,12.10
2016,03,31,22,03,12.10
2016,03,31,22,04,12.10
2016,03,31,22,05,12.00
2016,03,31,22,06,12.00
2016,03,31,22,07,11.90
2016,03,31,22,08,11.90
2016,03,31,22,09,11.80
2016,03,31,22,10,11.80
2016,03,31,22,11,11.80
2016,03,31,22,12,11.70
2016,03,31,22,13,11.70
2016,03,31,22,14,11.70
2016,03,31,22,15,11.60
2016,03,31,22,16,11.60
2016,03,31,22,17,11.60
2016,03,31,22,18,11.60
2016,03,31,22,19,11.50
2016,03,31,22,20,11.50
2016,03,31,22,21,11.50
2016,03,31,22,22,11.40
2016,03,31,22,23,11.40
2016,03,31,22,24,11.40
2016,03,31,22,25,11.40
2016,03,31,22,26,11.40
2016,03,31,22,27,11.30
2016,03,31,22,28,11.30
2016,03,31,22,29,11.30
2016,03,31,22,30,11.30
2016,03,31,22,31,11.30
2016,03,31,22,32,11.30
2016,03,31,22,33,11.30
2016,03,31,22,34,11.30
2016,03,31,22,35,11.30
2016,03,31,22,36,11.30
2016,03,31,22,37,11.30
2016,03,31,22,38,11.20
2016,03,31,22,39,11.20
2016,03,31,22,40,11.20
2016,03,31,22,41,11.20
2016,03,31,22,42,11.10
2016,03,31,22,43,11.10
2016,03,31,22,44,11.10
2016,03,31,22,45,11.10
2016,03,31,22,46,11.10
2016,03,31,22,47,11.00
2016,03,31,22,48,11.00
2016,03,31,22,49,11.00
2016,03,31,22,50,11.00
2016,03,31,22,51,10.90
2016,03,31,22,52,10.90
2016,03,31,22,53,10.90
2016,03,31,22,54,10.90
2016,03,31,22,55,10.90
2016,03,31,22,56,10.80
2016,03,31,22,57,10.80
2016,03,31,22,58,10.80
2016,03,31,22,59,10.80
2016,03,31,23,00,10.80
2016,03,31,23,01,10.70
2016,03,31,23,02,10.70
2016,03,31,23,03,10.70
2016,03,31,23,04,10.70
2016,03,31,23,05,10.60
2016,03,31,23,06,10.60
2016,03,31,23,07,10.60
2016,03,31,23,08,10.60
2016,03,31,23,09,10.60
2016,03,31,23,10,10.60
2016,03,31,23,11,10.60
2016,03,31,23,12,10.60
2016,03,31,23,13,10.50
2016,03,31,23,14,10.50
2016,03,31,23,15,10.50
2016,03,31,23,16,10.50
2016,03,31,23,17,10.50
2016,03,31,23,18,10.50
2016,03,31,23,19,10.40
2016,03,31,23,20,10.40
2016,03,31,23,21,10.40
2016,03,31,23,22,10.40
2016,03,31,23,23,10.40
2016,03,31,23,24,10.40
2016,03,31,23,25,10.40
2016,03,31,23,26,10.30
2016,03,31,23,27,10.30
2016,03,31,23,28,10.30
2016,03,31,23,29,10.30
2016,03,31,23,30,10.30
2016,03,31,23,31,10.30
2016,03,31,23,32,10.30
2016,03,31,23,33,10.20
2016,03,31,23,34,10.20
2016,03,31,23,35,10.20
2016,03,31,23,36,10.20
2016,03,31,23,37,10.20
2016,03,31,23,38,10.20
2016,03,31,23,39,10.20
2016,03,31,23,40,10.20
2016,03,31,23,41,10.20
2016,03,31,23,42,10.20
2016,03,31,23,43,10.10
2016,03,31,23,44,10.10
2016,03,31,23,45,10.10
2016,03,31,23,46,10.10
2016,03,31,23,47,10.10
2016,03,31,23,48,10.10
2016,03,31,23,49,10.10
2016,03,31,23,50,10.00
2016,03,31,23,51,10.00
2016,03,31,23,52,10.00
2016,03,31,23,53,10.00
2016,03,31,23,54,10.00
2016,03,31,23,55,10.00
2016,03,31,23,56,9.90
2016,03,31,23,57,9.90
2016,03,31,23,58,9.90
2016,03,31,23,59,9.90
